Location: *
(43.4667°N, 11.6833°E)
Time: 04:35:42
(UTC+00:00)

Cosmos 921 Rocket - Pass Details

Date: 19 July 2019
Orbit: 572 x 632 km, 75.8° (Epoch: 20 August)

Event Time Altitude Azimuth Distance (km) Brightness Sun altitude
Rises 19:13:08 0° 352° (N) 2,811 7.1 -4.5°
Reaches altitude 10° 19:15:36 10° 4° (N) 1,915 6.0 -4.9°
Maximum altitude 19:19:17 28° 64° (ENE) 1,126 4.2 -5.4°
Drops below altitude 10° 19:23:00 10° 124° (SE) 1,933 4.9 -6.0°
Enters shadow 19:23:36 - 128° (SE) 2,142 5.1 -6.0°
